Time,TemperatureF,DewpointF,PressureIn,WindDirection,WindDirectionDegrees,WindSpeedMPH,WindSpeedGustMPH,Humidity,HourlyPrecipIn,Conditions,Clouds,dailyrainin,SolarRadiationWatts/m^2,SoftwareType,DateUTC
2013-05-19 00:00:00,54.0,48.6,30.30,NNW,333,0.0,2.0,82,0.00,,---,0.00,0.00,VWS V14.01,2013-05-19 04:00:00,
2013-05-19 00:01:00,53.9,48.5,30.30,NNW,333,0.0,2.0,82,0.00,,---,0.00,0.00,VWS V14.01,2013-05-19 04:01:00,
2013-05-19 00:06:00,53.4,48.0,30.30,NNW,333,0.0,0.0,82,0.00,,---,0.00,0.00,VWS V14.01,2013-05-19 04:06:00,
2013-05-19 00:11:00,52.9,47.6,30.30,NNW,333,0.0,0.0,82,0.00,,---,0.00,0.00,VWS V14.01,2013-05-19 04:11:00,
2013-05-19 00:16:00,52.3,47.3,30.30,NNW,333,0.0,0.0,83,0.00,,---,0.00,0.00,VWS V14.01,2013-05-19 04:16:00,
2013-05-19 00:21:00,51.8,47.1,30.30,NNW,333,0.0,0.0,84,0.00,,---,0.00,0.00,VWS V14.01,2013-05-19 04:21:00,
2013-05-19 00:30:00,50.8,46.8,30.30,NNW,333,0.0,0.0,86,0.00,,---,0.00,0.00,VWS V14.01,2013-05-19 04:30:00,
2013-05-19 00:31:00,51.8,47.1,30.30,NNW,333,0.0,0.0,84,0.00,,---,0.00,0.00,VWS V14.01,2013-05-19 04:31:00,
2013-05-19 00:36:00,50.5,46.5,30.30,NNW,333,0.0,0.0,86,0.00,,---,0.00,0.00,VWS V14.01,2013-05-19 04:36:00,
2013-05-19 00:41:00,50.1,46.4,30.30,NNW,333,0.0,0.0,87,0.00,,---,0.00,0.00,VWS V14.01,2013-05-19 04:41:00,
2013-05-19 00:46:00,49.7,46.3,30.30,NNW,333,0.0,0.0,88,0.00,,---,0.00,0.00,VWS V14.01,2013-05-19 04:46:00,
2013-05-19 00:51:00,49.4,46.0,30.30,NNW,333,0.0,0.0,88,0.00,,---,0.00,0.00,VWS V14.01,2013-05-19 04:51:00,
2013-05-19 00:56:00,49.2,46.1,30.30,NNW,333,0.0,0.0,89,0.00,,---,0.00,0.00,VWS V14.01,2013-05-19 04:56:00,
2013-05-19 01:00:00,49.0,45.9,30.30,NNW,333,0.0,0.0,89,0.00,,---,0.00,0.00,VWS V14.01,2013-05-19 05:00:00,
2013-05-19 01:01:00,49.0,45.9,30.30,NNW,333,0.0,0.0,89,0.00,,---,0.00,0.00,VWS V14.01,2013-05-19 05:01:00,
2013-05-19 01:06:00,48.9,46.1,30.30,NNW,333,0.0,0.0,90,0.00,,---,0.00,0.00,VWS V14.01,2013-05-19 05:06:00,
2013-05-19 01:11:00,48.8,46.0,30.30,NNW,333,0.0,0.0,90,0.00,,---,0.00,0.00,VWS V14.01,2013-05-19 05:11:00,
2013-05-19 01:16:00,48.8,46.0,30.30,NNW,333,0.0,0.0,90,0.00,,---,0.00,0.00,VWS V14.01,2013-05-19 05:16:00,
2013-05-19 01:21:00,48.7,45.9,30.30,NNW,333,0.0,0.0,90,0.00,,---,0.00,0.00,VWS V14.01,2013-05-19 05:21:00,
2013-05-19 01:26:00,48.5,46.0,30.30,NNW,333,0.0,0.0,91,0.00,,---,0.00,0.00,VWS V14.01,2013-05-19 05:26:00,
2013-05-19 01:30:00,48.3,45.8,30.30,NNW,333,0.0,0.0,91,0.00,,---,0.00,0.00,VWS V14.01,2013-05-19 05:30:00,
2013-05-19 01:31:00,48.4,45.9,30.30,NNW,333,0.0,0.0,91,0.00,,---,0.00,0.00,VWS V14.01,2013-05-19 05:31:00,
2013-05-19 01:36:00,48.2,45.7,30.30,NNW,333,0.0,0.0,91,0.00,,---,0.00,0.00,VWS V14.01,2013-05-19 05:36:00,
2013-05-19 01:41:00,48.1,45.6,30.30,NNW,333,0.0,0.0,91,0.00,,---,0.00,0.00,VWS V14.01,2013-05-19 05:41:00,
2013-05-19 01:46:00,48.1,45.9,30.30,NNW,333,0.0,0.0,92,0.00,,---,0.00,0.00,VWS V14.01,2013-05-19 05:46:00,
2013-05-19 01:51:00,48.1,45.9,30.30,NNW,333,0.0,0.0,92,0.00,,---,0.00,0.00,VWS V14.01,2013-05-19 05:51:00,
2013-05-19 01:56:00,48.0,45.8,30.29,NNW,333,0.0,0.0,92,0.00,,---,0.00,0.00,VWS V14.01,2013-05-19 05:56:00,
2013-05-19 02:00:00,47.7,45.5,30.29,NNW,333,0.0,0.0,92,0.00,,---,0.00,0.00,VWS V14.01,2013-05-19 06:00:00,
2013-05-19 02:01:00,47.8,45.6,30.29,NNW,333,0.0,0.0,92,0.00,,---,0.00,0.00,VWS V14.01,2013-05-19 06:01:00,
2013-05-19 02:06:00,47.6,45.4,30.29,NNW,333,0.0,0.0,92,0.00,,---,0.00,0.00,VWS V14.01,2013-05-19 06:06:00,
2013-05-19 02:11:00,47.4,45.2,30.29,NNW,333,0.0,0.0,92,0.00,,---,0.00,0.00,VWS V14.01,2013-05-19 06:11:00,
2013-05-19 02:16:00,47.3,45.1,30.29,NNW,333,0.0,0.0,92,0.00,,---,0.00,0.00,VWS V14.01,2013-05-19 06:16:00,
2013-05-19 02:21:00,47.2,45.0,30.29,NNW,333,0.0,0.0,92,0.00,,---,0.00,0.00,VWS V14.01,2013-05-19 06:21:00,
2013-05-19 02:26:00,47.2,45.3,30.29,NNW,333,0.0,0.0,93,0.00,,---,0.00,0.00,VWS V14.01,2013-05-19 06:26:00,
2013-05-19 02:30:00,47.1,45.2,30.29,NNW,333,0.0,0.0,93,0.00,,---,0.00,0.00,VWS V14.01,2013-05-19 06:30:00,
2013-05-19 02:31:00,47.1,45.2,30.29,NNW,333,0.0,0.0,93,0.00,,---,0.00,0.00,VWS V14.01,2013-05-19 06:31:00,
2013-05-19 02:36:00,47.0,45.1,30.29,NNW,333,0.0,0.0,93,0.00,,---,0.00,0.00,VWS V14.01,2013-05-19 06:36:00,
2013-05-19 02:41:00,46.8,44.9,30.29,NNW,333,0.0,0.0,93,0.00,,---,0.00,0.00,VWS V14.01,2013-05-19 06:41:00,
2013-05-19 02:46:00,46.7,44.8,30.29,NNW,333,0.0,0.0,93,0.00,,---,0.00,0.00,VWS V14.01,2013-05-19 06:46:00,
2013-05-19 02:51:00,46.6,44.7,30.29,NNW,333,0.0,0.0,93,0.00,,---,0.00,0.00,VWS V14.01,2013-05-19 06:51:00,
2013-05-19 02:56:00,46.6,45.0,30.29,NNW,333,0.0,0.0,94,0.00,,---,0.00,0.00,VWS V14.01,2013-05-19 06:56:00,
2013-05-19 03:00:00,46.5,44.9,30.29,NNW,333,0.0,0.0,94,0.00,,---,0.00,0.00,VWS V14.01,2013-05-19 07:00:00,
2013-05-19 03:01:00,46.5,44.9,30.29,NNW,333,0.0,0.0,94,0.00,,---,0.00,0.00,VWS V14.01,2013-05-19 07:01:00,
2013-05-19 03:06:00,46.6,45.0,30.29,NNW,333,0.0,0.0,94,0.00,,---,0.00,0.00,VWS V14.01,2013-05-19 07:06:00,
2013-05-19 03:11:00,46.6,45.0,30.29,NNW,333,0.0,0.0,94,0.00,,---,0.00,0.00,VWS V14.01,2013-05-19 07:11:00,
2013-05-19 03:16:00,46.6,45.0,30.29,NNW,333,0.0,0.0,94,0.00,,---,0.00,0.00,VWS V14.01,2013-05-19 07:16:00,
2013-05-19 03:21:00,46.4,44.8,30.29,NNW,333,0.0,0.0,94,0.00,,---,0.00,0.00,VWS V14.01,2013-05-19 07:21:00,
2013-05-19 03:26:00,46.2,44.6,30.29,NNW,333,0.0,0.0,94,0.00,,---,0.00,0.00,VWS V14.01,2013-05-19 07:26:00,
2013-05-19 03:30:00,46.0,44.4,30.29,NNW,333,0.0,0.0,94,0.00,,---,0.00,0.00,VWS V14.01,2013-05-19 07:30:00,
2013-05-19 03:31:00,46.1,44.5,30.29,NNW,333,0.0,0.0,94,0.00,,---,0.00,0.00,VWS V14.01,2013-05-19 07:31:00,
2013-05-19 03:36:00,46.0,44.4,30.29,NNW,333,0.0,0.0,94,0.00,,---,0.00,0.00,VWS V14.01,2013-05-19 07:36:00,
2013-05-19 03:41:00,46.0,44.4,30.29,NNW,333,0.0,0.0,94,0.00,,---,0.00,0.00,VWS V14.01,2013-05-19 07:41:00,
2013-05-19 03:46:00,46.1,44.8,30.29,NNW,333,0.0,0.0,95,0.00,,---,0.00,0.00,VWS V14.01,2013-05-19 07:46:00,
2013-05-19 03:51:00,46.3,45.0,30.29,NNW,333,0.0,0.0,95,0.00,,---,0.00,0.00,VWS V14.01,2013-05-19 07:51:00,
2013-05-19 03:56:00,46.3,45.0,30.29,NNW,333,0.0,0.0,95,0.00,,---,0.00,0.00,VWS V14.01,2013-05-19 07:56:00,
2013-05-19 04:00:00,46.2,44.8,30.29,NNW,333,0.0,0.0,95,0.00,,---,0.00,0.00,VWS V14.01,2013-05-19 08:00:00,
2013-05-19 04:01:00,46.3,45.0,30.29,NNW,333,0.0,0.0,95,0.00,,---,0.00,0.00,VWS V14.01,2013-05-19 08:01:00,
2013-05-19 04:06:00,46.3,45.0,30.29,NNW,333,0.0,0.0,95,0.00,,---,0.00,0.00,VWS V14.01,2013-05-19 08:06:00,
2013-05-19 04:11:00,46.3,45.0,30.29,NNW,333,0.0,0.0,95,0.00,,---,0.00,0.00,VWS V14.01,2013-05-19 08:11:00,
2013-05-19 04:16:00,46.3,45.0,30.30,NNW,333,0.0,0.0,95,0.00,,---,0.00,0.00,VWS V14.01,2013-05-19 08:16:00,
2013-05-19 04:21:00,46.5,45.2,30.29,NNW,333,0.0,0.0,95,0.00,,---,0.00,0.00,VWS V14.01,2013-05-19 08:21:00,
2013-05-19 04:26:00,46.7,45.6,30.30,NNW,333,0.0,0.0,96,0.00,,---,0.00,0.00,VWS V14.01,2013-05-19 08:26:00,
2013-05-19 04:30:00,47.0,45.9,30.30,NNW,333,0.0,0.0,96,0.00,,---,0.00,0.00,VWS V14.01,2013-05-19 08:30:00,
2013-05-19 04:31:00,46.9,45.8,30.30,NNW,333,0.0,0.0,96,0.00,,---,0.00,0.00,VWS V14.01,2013-05-19 08:31:00,
2013-05-19 04:36:00,47.1,46.0,30.30,NNW,333,0.0,0.0,96,0.00,,---,0.00,0.00,VWS V14.01,2013-05-19 08:36:00,
2013-05-19 04:41:00,47.3,46.2,30.30,NNW,333,0.0,0.0,96,0.00,,---,0.00,0.00,VWS V14.01,2013-05-19 08:41:00,
2013-05-19 04:46:00,47.5,46.4,30.30,NNW,333,0.0,0.0,96,0.00,,---,0.00,0.00,VWS V14.01,2013-05-19 08:46:00,
2013-05-19 04:51:00,47.7,46.6,30.30,NNW,333,0.0,0.0,96,0.00,,---,0.00,0.00,VWS V14.01,2013-05-19 08:51:00,
2013-05-19 04:56:00,47.9,46.8,30.30,NNW,333,0.0,0.0,96,0.00,,---,0.00,0.00,VWS V14.01,2013-05-19 08:56:00,
2013-05-19 05:00:00,48.1,47.0,30.30,NNW,333,0.0,0.0,96,0.00,,---,0.00,0.00,VWS V14.01,2013-05-19 09:00:00,
2013-05-19 05:01:00,48.1,47.0,30.30,NNW,333,0.0,0.0,96,0.00,,---,0.00,0.00,VWS V14.01,2013-05-19 09:01:00,
2013-05-19 05:06:00,48.2,47.1,30.30,NNW,333,0.0,0.0,96,0.00,,---,0.00,0.00,VWS V14.01,2013-05-19 09:06:00,
2013-05-19 05:11:00,48.4,47.3,30.30,NNW,333,0.0,0.0,96,0.00,,---,0.00,0.00,VWS V14.01,2013-05-19 09:11:00,
2013-05-19 05:16:00,48.5,47.4,30.30,NNW,333,0.0,0.0,96,0.00,,---,0.00,0.00,VWS V14.01,2013-05-19 09:16:00,
2013-05-19 05:21:00,48.7,47.6,30.30,NNW,333,0.0,0.0,96,0.00,,---,0.00,0.00,VWS V14.01,2013-05-19 09:21:00,
2013-05-19 05:26:00,48.9,47.8,30.30,NNW,333,0.0,0.0,96,0.00,,---,0.00,0.00,VWS V14.01,2013-05-19 09:26:00,
2013-05-19 05:30:00,49.2,48.1,30.30,NNW,333,0.0,0.0,96,0.00,,---,0.00,0.00,VWS V14.01,2013-05-19 09:30:00,
2013-05-19 05:31:00,49.0,47.9,30.30,NNW,333,0.0,0.0,96,0.00,,---,0.00,0.00,VWS V14.01,2013-05-19 09:31:00,
2013-05-19 05:36:00,49.2,48.1,30.30,NNW,333,0.0,0.0,96,0.00,,---,0.00,0.00,VWS V14.01,2013-05-19 09:36:00,
2013-05-19 05:41:00,49.5,48.4,30.30,NNW,333,0.0,0.0,96,0.00,,---,0.00,0.00,VWS V14.01,2013-05-19 09:41:00,
2013-05-19 05:46:00,49.8,48.7,30.31,NNW,333,0.0,0.0,96,0.00,,---,0.00,0.00,VWS V14.01,2013-05-19 09:46:00,
2013-05-19 05:51:00,50.0,48.9,30.31,NNW,333,0.0,0.0,96,0.00,,---,0.00,0.00,VWS V14.01,2013-05-19 09:51:00,
2013-05-19 05:56:00,50.1,49.0,30.31,NNW,333,0.0,0.0,96,0.00,,---,0.00,0.00,VWS V14.01,2013-05-19 09:56:00,
2013-05-19 06:00:00,50.3,49.2,30.31,NNW,333,0.0,0.0,96,0.00,,---,0.00,5.00,VWS V14.01,2013-05-19 10:00:00,
2013-05-19 06:01:00,50.3,49.2,30.31,NNW,333,0.0,0.0,96,0.00,,---,0.00,5.00,VWS V14.01,2013-05-19 10:01:00,
2013-05-19 06:06:00,50.4,49.3,30.31,NNW,333,0.0,0.0,96,0.00,,---,0.00,7.00,VWS V14.01,2013-05-19 10:06:00,
2013-05-19 06:11:00,50.5,49.4,30.31,NNW,333,0.0,0.0,96,0.00,,---,0.00,9.00,VWS V14.01,2013-05-19 10:11:00,
2013-05-19 06:16:00,50.6,49.5,30.31,NNW,333,0.0,0.0,96,0.00,,---,0.00,9.00,VWS V14.01,2013-05-19 10:16:00,
2013-05-19 06:21:00,50.9,49.8,30.31,NNW,333,0.0,0.0,96,0.00,,---,0.00,14.00,VWS V14.01,2013-05-19 10:21:00,
2013-05-19 06:26:00,51.1,49.7,30.31,NNW,333,0.0,0.0,95,0.00,,---,0.00,12.00,VWS V14.01,2013-05-19 10:26:00,
2013-05-19 06:30:00,51.3,49.9,30.31,NNW,333,0.0,0.0,95,0.00,,---,0.00,11.00,VWS V14.01,2013-05-19 10:30:00,
2013-05-19 06:31:00,51.2,49.8,30.31,NNW,333,0.0,0.0,95,0.00,,---,0.00,12.00,VWS V14.01,2013-05-19 10:31:00,
2013-05-19 06:36:00,51.4,50.0,30.31,NNW,333,0.0,0.0,95,0.00,,---,0.00,11.00,VWS V14.01,2013-05-19 10:36:00,
2013-05-19 06:41:00,51.5,50.1,30.32,NNW,333,0.0,0.0,95,0.00,,---,0.00,9.00,VWS V14.01,2013-05-19 10:41:00,
2013-05-19 06:46:00,51.7,50.3,30.32,NNW,333,0.0,0.0,95,0.00,,---,0.00,11.00,VWS V14.01,2013-05-19 10:46:00,
2013-05-19 06:51:00,51.8,50.4,30.32,NNW,333,0.0,0.0,95,0.00,,---,0.00,12.00,VWS V14.01,2013-05-19 10:51:00,
2013-05-19 06:56:00,52.0,50.6,30.32,NNW,333,0.0,0.0,95,0.00,,---,0.00,12.00,VWS V14.01,2013-05-19 10:56:00,
2013-05-19 07:00:00,52.2,50.5,30.31,NNW,333,0.0,0.0,94,0.00,,---,0.00,11.00,VWS V14.01,2013-05-19 11:00:00,
2013-05-19 07:01:00,52.1,50.4,30.31,NNW,333,0.0,0.0,94,0.00,,---,0.00,11.00,VWS V14.01,2013-05-19 11:01:00,
2013-05-19 07:06:00,52.3,50.6,30.32,NNW,333,0.0,0.0,94,0.00,,---,0.00,9.00,VWS V14.01,2013-05-19 11:06:00,
2013-05-19 07:11:00,52.5,50.8,30.32,NNW,333,0.0,0.0,94,0.00,,---,0.00,11.00,VWS V14.01,2013-05-19 11:11:00,
2013-05-19 07:16:00,52.6,50.6,30.32,NNW,333,0.0,0.0,93,0.00,,---,0.00,11.00,VWS V14.01,2013-05-19 11:16:00,
2013-05-19 07:21:00,52.8,50.8,30.32,NNW,333,0.0,0.0,93,0.00,,---,0.00,14.00,VWS V14.01,2013-05-19 11:21:00,
2013-05-19 07:26:00,52.9,50.9,30.32,NNW,333,0.0,0.0,93,0.00,,---,0.00,14.00,VWS V14.01,2013-05-19 11:26:00,
2013-05-19 07:30:00,53.0,51.3,30.32,NNW,333,0.0,0.0,94,0.00,,---,0.00,14.00,VWS V14.01,2013-05-19 11:30:00,
2013-05-19 07:31:00,53.0,51.3,30.32,NNW,333,0.0,0.0,94,0.00,,---,0.00,14.00,VWS V14.01,2013-05-19 11:31:00,
2013-05-19 07:36:00,53.0,51.3,30.32,NNW,333,0.0,0.0,94,0.00,,---,0.00,18.00,VWS V14.01,2013-05-19 11:36:00,
2013-05-19 07:41:00,53.0,51.3,30.32,NNW,333,0.0,0.0,94,0.00,,---,0.00,25.00,VWS V14.01,2013-05-19 11:41:00,
2013-05-19 07:46:00,53.0,51.3,30.32,NNW,333,0.0,0.0,94,0.00,,---,0.00,32.00,VWS V14.01,2013-05-19 11:46:00,
2013-05-19 07:51:00,52.9,51.2,30.32,NNW,333,0.0,0.0,94,0.00,,---,0.00,35.00,VWS V14.01,2013-05-19 11:51:00,
2013-05-19 07:56:00,52.9,51.2,30.32,NNW,333,0.0,0.0,94,0.00,,---,0.00,35.00,VWS V14.01,2013-05-19 11:56:00,
2013-05-19 08:00:00,52.9,51.2,30.32,NNE,33,0.0,2.0,94,0.00,,---,0.00,40.00,VWS V14.01,2013-05-19 12:00:00,
2013-05-19 08:01:00,52.9,51.2,30.32,NNE,33,0.0,2.0,94,0.00,,---,0.00,44.00,VWS V14.01,2013-05-19 12:01:00,
2013-05-19 08:06:00,53.0,51.3,30.32,NNE,33,0.0,0.0,94,0.00,,---,0.00,42.00,VWS V14.01,2013-05-19 12:06:00,
2013-05-19 08:11:00,53.0,51.6,30.32,NNE,33,0.0,0.0,95,0.00,,---,0.00,39.00,VWS V14.01,2013-05-19 12:11:00,
2013-05-19 08:16:00,53.0,51.6,30.32,NNE,33,0.0,0.0,95,0.00,,---,0.00,35.00,VWS V14.01,2013-05-19 12:16:00,
2013-05-19 08:21:00,53.1,51.7,30.33,NNE,33,0.0,2.0,95,0.00,,---,0.00,30.00,VWS V14.01,2013-05-19 12:21:00,
2013-05-19 08:26:00,53.2,51.8,30.33,NNE,33,0.0,2.0,95,0.00,,---,0.00,30.00,VWS V14.01,2013-05-19 12:26:00,
2013-05-19 08:30:00,53.3,51.9,30.33,NNE,33,0.0,2.0,95,0.01,,---,0.01,46.00,VWS V14.01,2013-05-19 12:30:00,
2013-05-19 08:31:00,53.3,51.9,30.33,NNE,33,0.0,2.0,95,0.01,,---,0.01,42.00,VWS V14.01,2013-05-19 12:31:00,
2013-05-19 08:36:00,53.4,52.0,30.33,NNE,33,0.0,0.0,95,0.01,,---,0.01,47.00,VWS V14.01,2013-05-19 12:36:00,
2013-05-19 08:41:00,53.4,52.0,30.33,NNE,33,0.0,0.0,95,0.01,,---,0.01,40.00,VWS V14.01,2013-05-19 12:41:00,
2013-05-19 08:46:00,53.5,52.4,30.33,NNE,33,0.0,0.0,96,0.01,,---,0.01,37.00,VWS V14.01,2013-05-19 12:46:00,
2013-05-19 08:51:00,53.5,52.4,30.33,NNE,33,0.0,0.0,96,0.01,,---,0.01,47.00,VWS V14.01,2013-05-19 12:51:00,
2013-05-19 08:56:00,53.5,52.4,30.33,NNE,33,0.0,0.0,96,0.01,,---,0.01,46.00,VWS V14.01,2013-05-19 12:56:00,
2013-05-19 09:00:00,53.7,52.6,30.33,NNE,33,0.0,0.0,96,0.01,,---,0.01,72.00,VWS V14.01,2013-05-19 13:00:00,
2013-05-19 09:01:00,53.7,52.6,30.33,NNE,33,0.0,0.0,96,0.01,,---,0.01,67.00,VWS V14.01,2013-05-19 13:01:00,
2013-05-19 09:06:00,53.7,52.6,30.33,NNE,33,0.0,0.0,96,0.01,,---,0.01,83.00,VWS V14.01,2013-05-19 13:06:00,
2013-05-19 09:11:00,53.8,52.7,30.33,NNE,33,0.0,0.0,96,0.01,,---,0.01,88.00,VWS V14.01,2013-05-19 13:11:00,
2013-05-19 09:16:00,54.0,52.9,30.33,NNE,33,0.0,0.0,96,0.01,,---,0.01,135.00,VWS V14.01,2013-05-19 13:16:00,
2013-05-19 09:21:00,54.2,53.1,30.34,NNE,33,0.0,0.0,96,0.01,,---,0.01,81.00,VWS V14.01,2013-05-19 13:21:00,
2013-05-19 09:26:00,54.4,53.3,30.33,NNE,33,0.0,0.0,96,0.01,,---,0.01,86.00,VWS V14.01,2013-05-19 13:26:00,
2013-05-19 09:30:00,54.5,53.4,30.34,NNE,33,0.0,0.0,96,0.01,,---,0.01,121.00,VWS V14.01,2013-05-19 13:30:00,
2013-05-19 09:31:00,54.5,53.4,30.34,NNE,33,0.0,0.0,96,0.01,,---,0.01,123.00,VWS V14.01,2013-05-19 13:31:00,
2013-05-19 09:36:00,54.6,53.5,30.33,NNE,33,0.0,0.0,96,0.00,,---,0.01,104.00,VWS V14.01,2013-05-19 13:36:00,
2013-05-19 09:41:00,54.6,53.5,30.33,NNE,33,0.0,0.0,96,0.00,,---,0.01,146.00,VWS V14.01,2013-05-19 13:41:00,
2013-05-19 09:46:00,54.9,53.8,30.33,NNE,33,0.0,0.0,96,0.00,,---,0.01,107.00,VWS V14.01,2013-05-19 13:46:00,
2013-05-19 09:51:00,55.1,54.0,30.33,NNE,33,0.0,3.0,96,0.00,,---,0.01,116.00,VWS V14.01,2013-05-19 13:51:00,
2013-05-19 09:56:00,55.3,54.2,30.33,NNE,33,0.0,3.0,96,0.00,,---,0.01,104.00,VWS V14.01,2013-05-19 13:56:00,
2013-05-19 10:00:00,55.6,54.2,30.33,NNE,33,0.0,3.0,95,0.00,,---,0.01,104.00,VWS V14.01,2013-05-19 14:00:00,
2013-05-19 10:01:00,55.5,54.4,30.33,NNE,33,0.0,3.0,96,0.00,,---,0.01,98.00,VWS V14.01,2013-05-19 14:01:00,
2013-05-19 10:06:00,55.7,54.3,30.33,NNE,33,0.0,0.0,95,0.00,,---,0.01,98.00,VWS V14.01,2013-05-19 14:06:00,
2013-05-19 10:11:00,55.9,54.5,30.33,ESE,115,0.0,3.0,95,0.00,,---,0.01,93.00,VWS V14.01,2013-05-19 14:11:00,
2013-05-19 10:16:00,56.1,54.4,30.33,ESE,115,0.0,3.0,94,0.00,,---,0.01,88.00,VWS V14.01,2013-05-19 14:16:00,
2013-05-19 10:21:00,56.3,54.6,30.34,ESE,115,0.0,3.0,94,0.00,,---,0.01,83.00,VWS V14.01,2013-05-19 14:21:00,
2013-05-19 10:26:00,56.4,54.7,30.34,ESE,106,0.0,3.0,94,0.00,,---,0.01,74.00,VWS V14.01,2013-05-19 14:26:00,
2013-05-19 10:30:00,56.4,54.4,30.34,ENE,68,0.0,3.0,93,0.00,,---,0.01,81.00,VWS V14.01,2013-05-19 14:30:00,
2013-05-19 10:31:00,56.4,54.4,30.34,SSW,202,0.0,3.0,93,0.00,,---,0.01,77.00,VWS V14.01,2013-05-19 14:31:00,
2013-05-19 10:36:00,56.4,54.4,30.34,West,275,0.0,3.0,93,0.00,,---,0.01,69.00,VWS V14.01,2013-05-19 14:36:00,
2013-05-19 10:41:00,56.5,54.5,30.34,WNW,291,0.0,3.0,93,0.00,,---,0.01,88.00,VWS V14.01,2013-05-19 14:41:00,
2013-05-19 10:46:00,56.6,54.3,30.34,WNW,291,0.0,3.0,92,0.00,,---,0.01,84.00,VWS V14.01,2013-05-19 14:46:00,
2013-05-19 10:51:00,56.7,54.4,30.33,WNW,284,0.0,4.0,92,0.00,,---,0.01,114.00,VWS V14.01,2013-05-19 14:51:00,
2013-05-19 10:56:00,56.8,54.5,30.33,NNE,28,0.0,4.0,92,0.00,,---,0.01,135.00,VWS V14.01,2013-05-19 14:56:00,
2013-05-19 11:00:00,57.1,54.8,30.33,NNE,20,0.0,4.0,92,0.00,,---,0.01,146.00,VWS V14.01,2013-05-19 15:00:00,
2013-05-19 11:01:00,57.0,54.7,30.33,NNE,20,0.0,4.0,92,0.00,,---,0.01,135.00,VWS V14.01,2013-05-19 15:01:00,
2013-05-19 11:06:00,57.2,54.9,30.33,SE,127,0.0,2.0,92,0.00,,---,0.01,171.00,VWS V14.01,2013-05-19 15:06:00,
2013-05-19 11:11:00,57.5,55.2,30.33,East,99,0.0,3.0,92,0.00,,---,0.01,160.00,VWS V14.01,2013-05-19 15:11:00,
2013-05-19 11:16:00,57.7,55.1,30.33,East,99,0.0,3.0,91,0.00,,---,0.01,153.00,VWS V14.01,2013-05-19 15:16:00,
2013-05-19 11:21:00,57.8,54.9,30.33,East,99,0.0,3.0,90,0.00,,---,0.01,148.00,VWS V14.01,2013-05-19 15:21:00,
2013-05-19 11:26:00,57.9,55.0,30.33,NW,304,0.0,4.0,90,0.00,,---,0.01,160.00,VWS V14.01,2013-05-19 15:26:00,
2013-05-19 11:30:00,58.0,54.8,30.33,West,280,0.0,4.0,89,0.00,,---,0.01,158.00,VWS V14.01,2013-05-19 15:30:00,
2013-05-19 11:31:00,58.0,55.1,30.33,West,276,0.0,4.0,90,0.00,,---,0.01,160.00,VWS V14.01,2013-05-19 15:31:00,
2013-05-19 11:36:00,58.0,54.8,30.33,West,280,0.0,0.0,89,0.00,,---,0.01,144.00,VWS V14.01,2013-05-19 15:36:00,
2013-05-19 11:41:00,58.2,55.3,30.33,West,280,0.0,0.0,90,0.00,,---,0.01,135.00,VWS V14.01,2013-05-19 15:41:00,
2013-05-19 11:46:00,58.2,55.0,30.33,West,280,0.0,0.0,89,0.00,,---,0.01,135.00,VWS V14.01,2013-05-19 15:46:00,
2013-05-19 11:51:00,58.1,54.6,30.33,SSE,157,0.0,5.0,88,0.00,,---,0.01,171.00,VWS V14.01,2013-05-19 15:51:00,
2013-05-19 12:00:00,58.1,54.9,30.33,East,92,0.0,5.0,89,0.00,,---,0.01,98.00,VWS V14.01,2013-05-19 16:00:00,
2013-05-19 12:01:00,58.1,54.6,30.33,South,174,0.0,5.0,88,0.00,,---,0.01,171.00,VWS V14.01,2013-05-19 16:01:00,
2013-05-19 12:06:00,58.1,54.9,30.33,East,86,0.0,3.0,89,0.00,,---,0.01,100.00,VWS V14.01,2013-05-19 16:06:00,
2013-05-19 12:11:00,58.1,54.9,30.33,East,86,0.0,3.0,89,0.00,,---,0.01,105.00,VWS V14.01,2013-05-19 16:11:00,
2013-05-19 12:16:00,58.0,54.8,30.33,ESE,110,0.0,3.0,89,0.00,,---,0.01,72.00,VWS V14.01,2013-05-19 16:16:00,
2013-05-19 12:21:00,57.9,54.7,30.32,NNW,329,0.0,3.0,89,0.00,,---,0.01,69.00,VWS V14.01,2013-05-19 16:21:00,
2013-05-19 12:26:00,57.8,54.9,30.32,NNW,347,0.0,3.0,90,0.00,,---,0.01,67.00,VWS V14.01,2013-05-19 16:26:00,
2013-05-19 12:30:00,57.7,54.8,30.32,SSW,209,1.0,3.0,90,0.00,,---,0.01,83.00,VWS V14.01,2013-05-19 16:30:00,
2013-05-19 12:31:00,57.8,55.2,30.32,SSW,209,0.0,3.0,91,0.00,,---,0.01,88.00,VWS V14.01,2013-05-19 16:31:00,
2013-05-19 12:36:00,57.7,54.8,30.32,SSE,157,0.0,2.0,90,0.00,,---,0.01,76.00,VWS V14.01,2013-05-19 16:36:00,
2013-05-19 12:41:00,57.6,55.0,30.32,East,91,0.0,2.0,91,0.00,,---,0.01,83.00,VWS V14.01,2013-05-19 16:41:00,
2013-05-19 12:46:00,57.5,55.2,30.32,East,91,1.0,2.0,92,0.00,,---,0.01,105.00,VWS V14.01,2013-05-19 16:46:00,
2013-05-19 12:51:00,57.3,55.0,30.32,East,91,0.0,2.0,92,0.00,,---,0.01,90.00,VWS V14.01,2013-05-19 16:51:00,
2013-05-19 12:56:00,57.3,55.0,30.31,East,91,0.0,2.0,92,0.00,,---,0.01,88.00,VWS V14.01,2013-05-19 16:56:00,
2013-05-19 13:00:00,57.3,55.3,30.31,East,91,0.0,2.0,93,0.01,,---,0.02,105.00,VWS V14.01,2013-05-19 17:00:00,
2013-05-19 13:01:00,57.3,55.3,30.31,East,91,0.0,2.0,93,0.01,,---,0.02,114.00,VWS V14.01,2013-05-19 17:01:00,
2013-05-19 13:06:00,57.3,55.3,30.31,East,91,0.0,2.0,93,0.01,,---,0.02,118.00,VWS V14.01,2013-05-19 17:06:00,
2013-05-19 13:11:00,57.3,55.3,30.31,East,91,0.0,2.0,93,0.01,,---,0.02,120.00,VWS V14.01,2013-05-19 17:11:00,
2013-05-19 13:16:00,57.4,55.7,30.30,ESE,109,0.0,3.0,94,0.01,,---,0.02,105.00,VWS V14.01,2013-05-19 17:16:00,
2013-05-19 13:21:00,57.5,55.8,30.30,ESE,109,0.0,3.0,94,0.02,,---,0.03,100.00,VWS V14.01,2013-05-19 17:21:00,
2013-05-19 13:26:00,57.6,55.9,30.30,ESE,109,0.0,3.0,94,0.02,,---,0.03,107.00,VWS V14.01,2013-05-19 17:26:00,
2013-05-19 13:30:00,57.4,55.7,30.30,ESE,109,0.0,3.0,94,0.03,,---,0.04,60.00,VWS V14.01,2013-05-19 17:30:00,
2013-05-19 13:31:00,57.5,55.8,30.30,ESE,109,0.0,3.0,94,0.03,,---,0.04,67.00,VWS V14.01,2013-05-19 17:31:00,
2013-05-19 13:36:00,57.4,55.7,30.30,ESE,109,0.0,0.0,94,0.03,,---,0.04,67.00,VWS V14.01,2013-05-19 17:36:00,
2013-05-19 13:41:00,57.3,55.6,30.30,ESE,109,0.0,0.0,94,0.03,,---,0.04,58.00,VWS V14.01,2013-05-19 17:41:00,
2013-05-19 13:46:00,57.3,55.6,30.30,ESE,109,0.0,0.0,94,0.03,,---,0.04,54.00,VWS V14.01,2013-05-19 17:46:00,
2013-05-19 13:51:00,57.2,55.5,30.30,ESE,109,0.0,0.0,94,0.03,,---,0.04,54.00,VWS V14.01,2013-05-19 17:51:00,
2013-05-19 13:56:00,57.2,55.5,30.30,ESE,109,0.0,0.0,94,0.03,,---,0.04,69.00,VWS V14.01,2013-05-19 17:56:00,
2013-05-19 14:00:00,57.3,55.9,30.29,ESE,109,0.0,0.0,95,0.03,,---,0.04,65.00,VWS V14.01,2013-05-19 18:00:00,
2013-05-19 14:01:00,57.2,55.5,30.29,ESE,109,0.0,0.0,94,0.03,,---,0.04,69.00,VWS V14.01,2013-05-19 18:01:00,
2013-05-19 14:06:00,57.2,55.5,30.29,ESE,109,0.0,2.0,94,0.02,,---,0.04,54.00,VWS V14.01,2013-05-19 18:06:00,
2013-05-19 14:11:00,57.1,55.4,30.29,ESE,109,0.0,2.0,94,0.02,,---,0.04,58.00,VWS V14.01,2013-05-19 18:11:00,
2013-05-19 14:16:00,57.1,55.7,30.29,ESE,109,0.0,2.0,95,0.02,,---,0.04,79.00,VWS V14.01,2013-05-19 18:16:00,
2013-05-19 14:21:00,57.2,55.8,30.29,ESE,109,0.0,2.0,95,0.02,,---,0.04,76.00,VWS V14.01,2013-05-19 18:21:00,
2013-05-19 14:26:00,57.2,55.8,30.29,ESE,109,0.0,2.0,95,0.03,,---,0.05,60.00,VWS V14.01,2013-05-19 18:26:00,
2013-05-19 14:30:00,57.1,55.7,30.29,ESE,109,0.0,2.0,95,0.03,,---,0.05,51.00,VWS V14.01,2013-05-19 18:30:00,
2013-05-19 14:31:00,57.2,55.8,30.29,ESE,109,0.0,2.0,95,0.03,,---,0.05,51.00,VWS V14.01,2013-05-19 18:31:00,
2013-05-19 14:36:00,57.2,55.8,30.28,ESE,109,0.0,0.0,95,0.01,,---,0.05,44.00,VWS V14.01,2013-05-19 18:36:00,
2013-05-19 14:41:00,57.1,55.7,30.28,ESE,109,0.0,0.0,95,0.01,,---,0.05,47.00,VWS V14.01,2013-05-19 18:41:00,
2013-05-19 14:46:00,57.0,55.3,30.28,ESE,109,0.0,0.0,94,0.01,,---,0.05,51.00,VWS V14.01,2013-05-19 18:46:00,
2013-05-19 14:51:00,56.9,55.2,30.28,ESE,109,0.0,0.0,94,0.01,,---,0.05,46.00,VWS V14.01,2013-05-19 18:51:00,
2013-05-19 14:56:00,57.0,55.6,30.28,ESE,109,0.0,0.0,95,0.01,,---,0.05,47.00,VWS V14.01,2013-05-19 18:56:00,
2013-05-19 15:00:00,57.0,55.6,30.27,ESE,109,0.0,1.0,95,0.01,,---,0.05,58.00,VWS V14.01,2013-05-19 19:00:00,
2013-05-19 15:01:00,57.0,55.6,30.28,ESE,109,0.0,1.0,95,0.01,,---,0.05,56.00,VWS V14.01,2013-05-19 19:01:00,
2013-05-19 15:06:00,57.0,55.6,30.27,ESE,109,0.0,0.0,95,0.01,,---,0.05,56.00,VWS V14.01,2013-05-19 19:06:00,
2013-05-19 15:11:00,57.0,55.6,30.27,ESE,109,0.0,1.0,95,0.01,,---,0.05,60.00,VWS V14.01,2013-05-19 19:11:00,
2013-05-19 15:16:00,57.0,55.6,30.27,ESE,109,0.0,1.0,95,0.01,,---,0.05,39.00,VWS V14.01,2013-05-19 19:16:00,
2013-05-19 15:21:00,57.0,55.6,30.27,ESE,109,0.0,1.0,95,0.01,,---,0.05,40.00,VWS V14.01,2013-05-19 19:21:00,
2013-05-19 15:26:00,57.0,55.6,30.27,ESE,109,0.0,1.0,95,0.01,,---,0.05,54.00,VWS V14.01,2013-05-19 19:26:00,
2013-05-19 15:30:00,57.0,55.6,30.27,ESE,109,0.0,1.0,95,0.01,,---,0.05,53.00,VWS V14.01,2013-05-19 19:30:00,
2013-05-19 15:31:00,57.0,55.6,30.27,ESE,109,0.0,1.0,95,0.01,,---,0.05,54.00,VWS V14.01,2013-05-19 19:31:00,
2013-05-19 15:36:00,57.0,55.6,30.27,ESE,109,0.0,0.0,95,0.00,,---,0.05,49.00,VWS V14.01,2013-05-19 19:36:00,
2013-05-19 15:41:00,57.0,55.6,30.26,ESE,109,0.0,1.0,95,0.00,,---,0.05,49.00,VWS V14.01,2013-05-19 19:41:00,
2013-05-19 15:46:00,56.8,55.1,30.27,East,100,0.0,4.0,94,0.00,,---,0.05,58.00,VWS V14.01,2013-05-19 19:46:00,
2013-05-19 15:51:00,56.7,54.7,30.27,ESE,121,0.0,4.0,93,0.00,,---,0.05,53.00,VWS V14.01,2013-05-19 19:51:00,
2013-05-19 15:56:00,56.7,54.7,30.27,ESE,117,0.0,4.0,93,0.00,,---,0.05,47.00,VWS V14.01,2013-05-19 19:56:00,
2013-05-19 16:00:00,56.7,54.4,30.27,South,182,0.0,4.0,92,0.00,,---,0.05,35.00,VWS V14.01,2013-05-19 20:00:00,
2013-05-19 16:01:00,56.7,54.4,30.27,South,182,0.0,4.0,92,0.00,,---,0.05,37.00,VWS V14.01,2013-05-19 20:01:00,
2013-05-19 16:06:00,56.7,54.4,30.27,East,98,0.0,3.0,92,0.00,,---,0.05,37.00,VWS V14.01,2013-05-19 20:06:00,
2013-05-19 16:11:00,56.7,54.4,30.27,East,98,0.0,3.0,92,0.00,,---,0.05,28.00,VWS V14.01,2013-05-19 20:11:00,
2013-05-19 16:16:00,56.7,54.4,30.27,East,98,0.0,3.0,92,0.00,,---,0.05,35.00,VWS V14.01,2013-05-19 20:16:00,
2013-05-19 16:21:00,56.7,54.4,30.27,SE,143,0.0,3.0,92,0.00,,---,0.05,39.00,VWS V14.01,2013-05-19 20:21:00,
2013-05-19 16:26:00,56.7,54.4,30.26,SSE,161,3.0,4.0,92,0.00,,---,0.05,51.00,VWS V14.01,2013-05-19 20:26:00,
2013-05-19 16:30:00,56.7,54.4,30.27,ENE,74,0.0,4.0,92,0.00,,---,0.05,49.00,VWS V14.01,2013-05-19 20:30:00,
2013-05-19 16:31:00,56.7,54.1,30.26,ESE,109,0.0,4.0,91,0.00,,---,0.05,53.00,VWS V14.01,2013-05-19 20:31:00,
2013-05-19 16:36:00,56.7,54.4,30.27,East,100,0.0,2.0,92,0.00,,---,0.05,39.00,VWS V14.01,2013-05-19 20:36:00,
2013-05-19 16:41:00,56.7,54.1,30.26,East,89,1.0,2.0,91,0.00,,---,0.05,51.00,VWS V14.01,2013-05-19 20:41:00,
2013-05-19 16:46:00,56.8,54.5,30.26,ESE,112,0.0,4.0,92,0.00,,---,0.05,69.00,VWS V14.01,2013-05-19 20:46:00,
2013-05-19 16:51:00,56.9,54.3,30.26,East,92,0.0,4.0,91,0.00,,---,0.05,88.00,VWS V14.01,2013-05-19 20:51:00,
2013-05-19 16:56:00,57.0,54.4,30.26,NNE,14,0.0,4.0,91,0.00,,---,0.05,69.00,VWS V14.01,2013-05-19 20:56:00,
2013-05-19 17:00:00,57.1,54.2,30.26,SE,125,4.0,4.0,90,0.00,,---,0.05,56.00,VWS V14.01,2013-05-19 21:00:00,
2013-05-19 17:01:00,57.0,54.4,30.26,ESE,102,3.0,4.0,91,0.00,,---,0.05,53.00,VWS V14.01,2013-05-19 21:01:00,
2013-05-19 17:06:00,57.1,54.2,30.26,WSW,244,0.0,6.0,90,0.00,,---,0.05,51.00,VWS V14.01,2013-05-19 21:06:00,
2013-05-19 17:11:00,57.1,54.2,30.26,ESE,114,2.0,6.0,90,0.00,,---,0.05,40.00,VWS V14.01,2013-05-19 21:11:00,
2013-05-19 17:16:00,57.2,54.3,30.26,ESE,107,0.0,9.0,90,0.00,,---,0.05,58.00,VWS V14.01,2013-05-19 21:16:00,
2013-05-19 17:21:00,57.2,54.3,30.26,SSW,192,5.0,9.0,90,0.00,,---,0.05,35.00,VWS V14.01,2013-05-19 21:21:00,
2013-05-19 17:26:00,57.2,54.3,30.25,North,5,0.0,9.0,90,0.00,,---,0.05,42.00,VWS V14.01,2013-05-19 21:26:00,
2013-05-19 17:30:00,57.2,54.0,30.25,NE,49,2.0,9.0,89,0.00,,---,0.05,46.00,VWS V14.01,2013-05-19 21:30:00,
2013-05-19 17:31:00,57.2,54.3,30.25,SW,222,0.0,9.0,90,0.00,,---,0.05,39.00,VWS V14.01,2013-05-19 21:31:00,
2013-05-19 17:36:00,57.2,54.3,30.25,NW,317,0.0,3.0,90,0.00,,---,0.05,42.00,VWS V14.01,2013-05-19 21:36:00,
2013-05-19 17:41:00,57.3,54.4,30.25,SE,135,0.0,3.0,90,0.00,,---,0.05,40.00,VWS V14.01,2013-05-19 21:41:00,
2013-05-19 17:46:00,57.3,54.4,30.25,East,84,0.0,3.0,90,0.00,,---,0.05,58.00,VWS V14.01,2013-05-19 21:46:00,
2013-05-19 17:51:00,57.3,54.4,30.25,SSE,168,0.0,6.0,90,0.00,,---,0.05,62.00,VWS V14.01,2013-05-19 21:51:00,
2013-05-19 17:56:00,57.4,54.5,30.25,SE,144,0.0,7.0,90,0.00,,---,0.05,53.00,VWS V14.01,2013-05-19 21:56:00,
2013-05-19 18:00:00,57.5,54.3,30.25,East,86,0.0,7.0,89,0.00,,---,0.05,42.00,VWS V14.01,2013-05-19 22:00:00,
2013-05-19 18:01:00,57.5,54.3,30.25,ESE,115,0.0,7.0,89,0.00,,---,0.05,44.00,VWS V14.01,2013-05-19 22:01:00,
2013-05-19 18:06:00,57.5,54.6,30.24,ESE,103,4.0,4.0,90,0.00,,---,0.05,35.00,VWS V14.01,2013-05-19 22:06:00,
2013-05-19 18:11:00,57.5,54.3,30.24,SE,132,4.0,7.0,89,0.00,,---,0.05,26.00,VWS V14.01,2013-05-19 22:11:00,
2013-05-19 18:16:00,57.5,54.6,30.25,East,96,3.0,8.0,90,0.00,,---,0.05,21.00,VWS V14.01,2013-05-19 22:16:00,
2013-05-19 18:21:00,57.4,54.2,30.25,SSE,163,3.0,8.0,89,0.00,,---,0.05,23.00,VWS V14.01,2013-05-19 22:21:00,
2013-05-19 18:26:00,57.4,54.2,30.25,South,181,0.0,8.0,89,0.00,,---,0.05,25.00,VWS V14.01,2013-05-19 22:26:00,
2013-05-19 18:30:00,57.3,54.1,30.24,ESE,108,0.0,8.0,89,0.00,,---,0.05,25.00,VWS V14.01,2013-05-19 22:30:00,
2013-05-19 18:31:00,57.3,54.4,30.24,SSE,151,2.0,8.0,90,0.00,,---,0.05,21.00,VWS V14.01,2013-05-19 22:31:00,
2013-05-19 18:36:00,57.3,54.1,30.23,SE,128,0.0,3.0,89,0.00,,---,0.05,28.00,VWS V14.01,2013-05-19 22:36:00,
2013-05-19 18:41:00,57.4,54.2,30.23,ESE,102,1.0,5.0,89,0.00,,---,0.05,23.00,VWS V14.01,2013-05-19 22:41:00,
2013-05-19 18:46:00,57.4,54.2,30.24,South,183,1.0,5.0,89,0.00,,---,0.05,18.00,VWS V14.01,2013-05-19 22:46:00,
2013-05-19 18:51:00,57.4,54.2,30.23,SSE,157,2.0,8.0,89,0.00,,---,0.05,12.00,VWS V14.01,2013-05-19 22:51:00,
2013-05-19 18:56:00,57.4,54.2,30.24,East,87,1.0,8.0,89,0.00,,---,0.05,9.00,VWS V14.01,2013-05-19 22:56:00,
2013-05-19 19:00:00,57.4,54.2,30.24,SE,146,0.0,8.0,89,0.00,,---,0.05,7.00,VWS V14.01,2013-05-19 23:00:00,
2013-05-19 19:01:00,57.4,54.2,30.24,SE,129,7.0,8.0,89,0.00,,---,0.05,7.00,VWS V14.01,2013-05-19 23:01:00,
2013-05-19 19:06:00,57.4,54.2,30.24,WSW,242,0.0,9.0,89,0.00,,---,0.05,7.00,VWS V14.01,2013-05-19 23:06:00,
2013-05-19 19:11:00,57.4,54.2,30.24,ESE,116,10.0,10.0,89,0.00,,---,0.05,9.00,VWS V14.01,2013-05-19 23:11:00,
2013-05-19 19:16:00,57.4,54.2,30.24,WSW,239,2.0,10.0,89,0.00,,---,0.05,12.00,VWS V14.01,2013-05-19 23:16:00,
2013-05-19 19:21:00,57.4,54.2,30.24,South,177,0.0,10.0,89,0.00,,---,0.05,14.00,VWS V14.01,2013-05-19 23:21:00,
2013-05-19 19:26:00,57.4,54.2,30.24,East,83,0.0,10.0,89,0.00,,---,0.05,11.00,VWS V14.01,2013-05-19 23:26:00,
2013-05-19 19:30:00,57.3,54.1,30.24,East,88,0.0,10.0,89,0.00,,---,0.05,7.00,VWS V14.01,2013-05-19 23:30:00,
2013-05-19 19:31:00,57.4,54.2,30.24,East,88,0.0,10.0,89,0.00,,---,0.05,7.00,VWS V14.01,2013-05-19 23:31:00,
2013-05-19 19:36:00,57.3,54.1,30.24,East,88,1.0,2.0,89,0.00,,---,0.05,7.00,VWS V14.01,2013-05-19 23:36:00,
2013-05-19 19:41:00,57.2,54.0,30.24,East,88,2.0,3.0,89,0.00,,---,0.05,5.00,VWS V14.01,2013-05-19 23:41:00,
2013-05-19 19:46:00,57.2,54.3,30.24,East,88,2.0,3.0,90,0.00,,---,0.05,0.00,VWS V14.01,2013-05-19 23:46:00,
2013-05-19 19:51:00,57.2,54.0,30.24,SE,139,0.0,3.0,89,0.00,,---,0.05,0.00,VWS V14.01,2013-05-19 23:51:00,
2013-05-19 19:56:00,57.2,54.0,30.24,ESE,105,0.0,3.0,89,0.00,,---,0.05,0.00,VWS V14.01,2013-05-19 23:56:00,
2013-05-19 20:00:00,57.3,54.1,30.24,SE,131,1.0,4.0,89,0.00,,---,0.05,0.00,VWS V14.01,2013-05-20 00:00:00,
2013-05-19 20:01:00,57.2,54.0,30.24,ESE,119,3.0,4.0,89,0.00,,---,0.05,0.00,VWS V14.01,2013-05-20 00:01:00,
2013-05-19 20:06:00,57.3,54.1,30.24,ESE,114,2.0,2.0,89,0.00,,---,0.05,0.00,VWS V14.01,2013-05-20 00:06:00,
2013-05-19 20:11:00,57.3,54.1,30.24,ENE,57,1.0,2.0,89,0.00,,---,0.05,0.00,VWS V14.01,2013-05-20 00:11:00,
2013-05-19 20:16:00,57.3,54.1,30.23,ESE,113,0.0,5.0,89,0.00,,---,0.05,0.00,VWS V14.01,2013-05-20 00:16:00,
2013-05-19 20:21:00,57.3,54.1,30.23,SSE,151,0.0,5.0,89,0.00,,---,0.05,0.00,VWS V14.01,2013-05-20 00:21:00,
2013-05-19 20:26:00,57.4,53.9,30.23,ESE,109,3.0,5.0,88,0.00,,---,0.05,0.00,VWS V14.01,2013-05-20 00:26:00,
2013-05-19 20:30:00,57.4,53.9,30.23,South,191,0.0,5.0,88,0.00,,---,0.05,0.00,VWS V14.01,2013-05-20 00:30:00,
2013-05-19 20:31:00,57.5,54.0,30.22,SE,134,0.0,5.0,88,0.00,,---,0.05,0.00,VWS V14.01,2013-05-20 00:31:00,
2013-05-19 20:36:00,57.5,54.0,30.23,ESE,115,0.0,5.0,88,0.00,,---,0.05,0.00,VWS V14.01,2013-05-20 00:36:00,
2013-05-19 20:41:00,57.4,54.2,30.23,SE,125,2.0,5.0,89,0.00,,---,0.05,0.00,VWS V14.01,2013-05-20 00:41:00,
2013-05-19 20:46:00,57.5,54.3,30.23,SSE,161,0.0,5.0,89,0.00,,---,0.05,0.00,VWS V14.01,2013-05-20 00:46:00,
2013-05-19 20:51:00,57.5,54.3,30.23,NW,325,0.0,5.0,89,0.00,,---,0.05,0.00,VWS V14.01,2013-05-20 00:51:00,
2013-05-19 20:56:00,57.5,54.3,30.23,NW,325,0.0,5.0,89,0.00,,---,0.05,0.00,VWS V14.01,2013-05-20 00:56:00,
2013-05-19 21:00:00,57.5,54.3,30.23,NW,325,0.0,5.0,89,0.00,,---,0.05,0.00,VWS V14.01,2013-05-20 01:00:00,
2013-05-19 21:01:00,57.5,54.3,30.23,NW,325,0.0,5.0,89,0.00,,---,0.05,0.00,VWS V14.01,2013-05-20 01:01:00,
2013-05-19 21:06:00,57.5,54.0,30.23,East,98,0.0,2.0,88,0.00,,---,0.05,0.00,VWS V14.01,2013-05-20 01:06:00,
2013-05-19 21:11:00,57.5,54.3,30.23,East,98,0.0,2.0,89,0.00,,---,0.05,0.00,VWS V14.01,2013-05-20 01:11:00,
2013-05-19 21:16:00,57.4,54.2,30.23,ESE,115,0.0,3.0,89,0.00,,---,0.05,0.00,VWS V14.01,2013-05-20 01:16:00,
2013-05-19 21:21:00,57.3,54.1,30.22,ESE,116,0.0,3.0,89,0.00,,---,0.05,0.00,VWS V14.01,2013-05-20 01:21:00,
2013-05-19 21:26:00,57.3,54.1,30.22,ESE,105,0.0,3.0,89,0.00,,---,0.05,0.00,VWS V14.01,2013-05-20 01:26:00,
2013-05-19 21:30:00,57.4,54.2,30.22,ESE,105,0.0,3.0,89,0.00,,---,0.05,0.00,VWS V14.01,2013-05-20 01:30:00,
2013-05-19 21:31:00,57.3,54.1,30.22,ESE,105,0.0,3.0,89,0.00,,---,0.05,0.00,VWS V14.01,2013-05-20 01:31:00,
2013-05-19 21:36:00,57.5,54.3,30.22,ESE,105,0.0,0.0,89,0.00,,---,0.05,0.00,VWS V14.01,2013-05-20 01:36:00,
2013-05-19 21:41:00,57.5,54.3,30.22,ESE,105,0.0,0.0,89,0.00,,---,0.05,0.00,VWS V14.01,2013-05-20 01:41:00,
2013-05-19 21:46:00,57.5,54.3,30.22,ESE,119,0.0,1.0,89,0.00,,---,0.05,0.00,VWS V14.01,2013-05-20 01:46:00,
2013-05-19 21:51:00,57.4,54.2,30.23,ESE,119,0.0,1.0,89,0.00,,---,0.05,0.00,VWS V14.01,2013-05-20 01:51:00,
2013-05-19 21:56:00,57.3,54.4,30.22,ESE,119,0.0,1.0,90,0.00,,---,0.05,0.00,VWS V14.01,2013-05-20 01:56:00,
2013-05-19 22:00:00,57.2,54.3,30.22,ESE,119,0.0,1.0,90,0.00,,---,0.05,0.00,VWS V14.01,2013-05-20 02:00:00,
2013-05-19 22:01:00,57.2,54.3,30.22,ESE,119,0.0,1.0,90,0.00,,---,0.05,0.00,VWS V14.01,2013-05-20 02:01:00,
2013-05-19 22:06:00,57.1,54.2,30.22,ESE,119,0.0,0.0,90,0.00,,---,0.05,0.00,VWS V14.01,2013-05-20 02:06:00,
2013-05-19 22:11:00,57.1,54.5,30.22,ESE,119,0.0,0.0,91,0.00,,---,0.05,0.00,VWS V14.01,2013-05-20 02:11:00,
2013-05-19 22:16:00,57.0,54.4,30.22,ESE,119,0.0,1.0,91,0.00,,---,0.05,0.00,VWS V14.01,2013-05-20 02:16:00,
2013-05-19 22:21:00,56.9,54.3,30.22,ESE,119,0.0,1.0,91,0.00,,---,0.05,0.00,VWS V14.01,2013-05-20 02:21:00,
2013-05-19 22:26:00,56.9,54.3,30.22,ESE,119,0.0,1.0,91,0.00,,---,0.05,0.00,VWS V14.01,2013-05-20 02:26:00,
2013-05-19 22:30:00,56.9,54.3,30.22,ESE,119,0.0,1.0,91,0.00,,---,0.05,0.00,VWS V14.01,2013-05-20 02:30:00,
2013-05-19 22:31:00,56.9,54.3,30.22,ESE,119,0.0,1.0,91,0.00,,---,0.05,0.00,VWS V14.01,2013-05-20 02:31:00,
2013-05-19 22:36:00,56.9,54.3,30.22,ESE,119,0.0,0.0,91,0.00,,---,0.05,0.00,VWS V14.01,2013-05-20 02:36:00,
2013-05-19 22:41:00,56.8,54.2,30.22,ESE,119,0.0,0.0,91,0.00,,---,0.05,0.00,VWS V14.01,2013-05-20 02:41:00,
2013-05-19 22:46:00,56.8,54.5,30.22,ESE,119,0.0,0.0,92,0.00,,---,0.05,0.00,VWS V14.01,2013-05-20 02:46:00,
2013-05-19 22:51:00,56.8,54.5,30.21,ESE,119,0.0,0.0,92,0.00,,---,0.05,0.00,VWS V14.01,2013-05-20 02:51:00,
2013-05-19 22:56:00,56.8,54.5,30.21,ESE,119,0.0,0.0,92,0.00,,---,0.05,0.00,VWS V14.01,2013-05-20 02:56:00,
2013-05-19 23:00:00,56.8,54.5,30.20,ESE,119,0.0,0.0,92,0.00,,---,0.05,0.00,VWS V14.01,2013-05-20 03:00:00,
2013-05-19 23:01:00,56.7,54.4,30.20,ESE,119,0.0,0.0,92,0.00,,---,0.05,0.00,VWS V14.01,2013-05-20 03:01:00,
2013-05-19 23:06:00,56.7,54.4,30.20,ESE,119,0.0,0.0,92,0.00,,---,0.05,0.00,VWS V14.01,2013-05-20 03:06:00,
2013-05-19 23:11:00,56.7,54.4,30.20,ESE,119,0.0,0.0,92,0.00,,---,0.05,0.00,VWS V14.01,2013-05-20 03:11:00,
2013-05-19 23:16:00,56.7,54.4,30.20,ESE,119,0.0,0.0,92,0.00,,---,0.05,0.00,VWS V14.01,2013-05-20 03:16:00,
2013-05-19 23:21:00,56.7,54.4,30.20,ESE,119,0.0,0.0,92,0.00,,---,0.05,0.00,VWS V14.01,2013-05-20 03:21:00,
2013-05-19 23:26:00,56.7,54.4,30.19,ESE,119,0.0,0.0,92,0.00,,---,0.05,0.00,VWS V14.01,2013-05-20 03:26:00,
2013-05-19 23:30:00,56.7,54.4,30.19,ESE,119,0.0,0.0,92,0.00,,---,0.05,0.00,VWS V14.01,2013-05-20 03:30:00,
2013-05-19 23:31:00,56.7,54.4,30.19,ESE,119,0.0,0.0,92,0.00,,---,0.05,0.00,VWS V14.01,2013-05-20 03:31:00,
2013-05-19 23:36:00,56.7,54.4,30.19,ESE,119,0.0,0.0,92,0.00,,---,0.05,0.00,VWS V14.01,2013-05-20 03:36:00,
2013-05-19 23:41:00,56.7,54.4,30.19,ESE,119,0.0,0.0,92,0.00,,---,0.05,0.00,VWS V14.01,2013-05-20 03:41:00,
2013-05-19 23:46:00,56.7,54.4,30.18,ESE,119,0.0,0.0,92,0.00,,---,0.05,0.00,VWS V14.01,2013-05-20 03:46:00,
2013-05-19 23:51:00,56.7,54.4,30.18,ESE,119,0.0,0.0,92,0.00,,---,0.05,0.00,VWS V14.01,2013-05-20 03:51:00,
2013-05-19 23:56:00,56.7,54.4,30.19,ESE,119,0.0,0.0,92,0.00,,---,0.05,0.00,VWS V14.01,2013-05-20 03:56:00,